Torna al catalogo

STARLINK-6098

AttivoComunicazioniVLEO
NORAD 56906·PAYLOAD·🇺🇸 United States

Lanciato Jun 12, 2023 da Cape Canaveral Space Force Station

Loading…

Prossimi Passaggi (prossime 24 ore)

TLE

AggiornatoSource: CelesTrak SupGP

Epoca: Sep 15, 2026, 01:50 UTC

1 56906C 23083AG  26258.07687500  .00005193  00000+0  18806-3 0  2589
2 56906  43.0009  80.8503 0001530 256.9879 175.5651 15.27579963    18

Traccia STARLINK-6098 in tempo reale con AllMySat

Download on the App Store